Погода в Горки

Погода в Горки : погода сейчас, прогноз погоды и архив. Всё, что Вы хотите узнать о погоде в Горки!

Хотите узнать прогноз погоды в Горки? Тогда Вам сюда: Погода в Горки

Поиск расширенной информации на нашем сайте:

Другие новости

Новости СМИ2

Главная страница сайта

Новости сайта

02.10.2013

Напоминаем, что на нашем новом сайте вы можете получить высокодетализированные прогнозы погоды по пунктам России, СНГ и мира (включающие важные для авиации метеовеличины, такие как направление и скорость ветра, видимость, явления погоды, количество и форма облачности, нижняя и верхняя граница облачности), а также ознакомиться с разнообразными материалами по авиационной метеорологии и подборкой полезных ссылок на эту тему.

Сайт Метеоцентр.Азия посвящён разработке технологий оптимизации авиаметеорологического обслуживания, включая проектирование и перспективное создание нескольких автоматизированных авиаметеорологических систем:
- система выпуска высокодетальных прогностических карт явлений погоды для нижнего воздушного пространства по России и ближнему зарубежью;
- система верификации прогнозов TAF (выпускаемых синоптиками официальных АМСГ РФ и ближнего зарубежья) и AUTOTAF (выпускаемых сайтом Метеоцентр.Азия) - выявление ошибок, онлайн-сопоставление с фактической погодой METAR, автоматическое внесение коррективов в прогнозы при резком отклонении фактической погоды от прогноза, подсчёт оправдываемости прогнозов по элементам и в целом;
- система обработки, анализа и отображения авиаметеорологической информации для применения провайдерами метеорологической информации.


Погода в Горки - сегодня

Время (UTC), дата Ветер
(°,м/с) 
Видим.   Явления Облачность Т
(°С)
Тd
(°С)
f(%) Тe
(°С)
Pmin
(гПа)
dP
(гПа)
Po
(мм)
O2
(г/м3)
Тmin Tmax R s Состояние
почвы
18 21.05.17 360 (С) 4{12}  18000 м    6/1 600 м верхняя 
[Sc|Ci fib]
+12.9 +5 59 +12  1013.4  1.6  742  285    +19.7       
21 21.05.17 320 (СЗ) 3{11}  17000 м    3/0 верхняя 
[Ci fib]
+6.3 +3.4 82 +5  1015.1  743  292           
00 22.05.17 360 (С) 20000 м    ясно 
+5.5 +2.6 82 +5  1015.8  0.6  743  293           
03 22.05.17 330 (СЗ) 14000 м    ясно 
+5 +3 87 +3  1016.6  0.8  744  294           
06 22.05.17 350 (С) 18000 м    3/0 верхняя 
[Ci fib]
+13.4 +4.3 54 +14  1016.3  0.4  744  285  +3.2         
09 22.05.17 330 (СЗ) 20000 м    4/3 600 м верхняя 
[Cu hum|Ci fib]
+17 +7 52 +17  1015.8  -0.1  744  281           
12 22.05.17 360 (С) 18000 м    8/6 600 м верхняя 
[Cu hum|Ci fib]
+19.5 +6.4 42 +20  1014.4  -1.2  743  278           
15 22.05.17 310 (СЗ) 20000 м    6/6 600 м 
[Cu hum]
+19.1 +3.9 37 +20  1013.4  -1  743  279           
18 22.05.17 310 (СЗ) 2{10}  20000 м    8/0 средняя 
[Ac und]
+14.2 +7.2 63 +15  1013.8  743  283    +20.2       
21 22.05.17 270 (З) 19000 м    6/0 средняя 
[Ac und]
+11.5 +7.2 75 +12  1014.4  0.3  743  286           
00 23.05.17 240 (ЮЗ) 16000 м    8/0 средняя 
[Ac und]
+10.6 +8.7 88 +12  1014.1  -0.4  742  286           
03 23.05.17 210 (ЮЗ) 14000 м    6/0 средняя 
[Ac und]
+8.2 +7.4 95 +8  1014.3  742  289           
06 23.05.17 240 (ЮЗ) 20000 м    9/3 600 м верхняя 
[Cu hum|Ci fib]
+15.8 +9.8 67 +18  1013.7  0.1  743  281  +7.7         
09 23.05.17 280 (З) 20000 м    9/4 600 м верхняя 
[Cu hum|Ci fib]
+19.6 +8.7 49 +20  1013.1  -0.2  742  278           
15 23.05.17 270 (З) 4{10}  20000 м    8/3 600 м верхняя 
[Cu hum|Ci fib]
+21.3 +6 37 +21  1011.4  -1  741  276           
18 23.05.17 290 (З) 17000 м    3/0 верхняя 
[Ci fib]
+17.8 +6.3 47 +19  1011.7  -0.1  741  279    +21.6       
21 23.05.17 150 (ЮВ) 13000 м    ясно 
+11.6 +8.1 79 +13  1012.6  0.4  741  285           
00 24.05.17 220 (ЮЗ) 17000 м    3/0 верхняя 
[Ci fib]
+8 +7.3 95 +8  1012.7  -0.3  741  289           
03 24.05.17 200 (Ю) 20000 м    9/0 верхняя 
[Ci fib]
+8.3 +6 85 +9  1012.5  -0.1  741  289           
06 24.05.17 220 (ЮЗ) 20000 м    9/3 600 м средняя, верхняя 
[Sc|Ac und|Ci fib]
+16.2 +8.3 59 +17  1012  0.2  741  281  +6.2         
09 24.05.17 230 (ЮЗ) 20000 м    9/6 600 м верхняя 
[Sc|Cs]
+18.8 +7.6 48 +19  1012.2  0.4  742  278           
18 24.05.17 170 (Ю) 3{11}  16000 м  {ливн. осадки}  9/4 600 м верхняя 
[Sc|Ci fib]
+14.9 +11.6 81 +19  1012  0.4  741  281    +19.9  0.0     
21 24.05.17 140 (ЮВ) 13000 м    3/3 600 м верхняя 
[Sc|Ci fib]
+11.9 +10.4 91 +13  1012.2  -0.1  741  284           
00 25.05.17 160 (Ю) 4200 м  дымка  9/3 600 м верхняя 
[Sc|Ci fib]
+10.8 +10.4 97 +13  1012.1  -0.2  741  285           
03 25.05.17 160 (Ю) 8000 м  дымка  10/10 210 м 
[Frnb]
+11.7 +11.1 96 +14  1011.6  -0.4  741  284           
Время (UTC), дата Ветер
(°,м/с) 
Видим.   Явления Облачность Т
(°С)
Тd
(°С)
f(%) Тe
(°С)
Pmin
(гПа)
dP
(гПа)
Po
(мм)
O2
(г/м3)
Тmin Tmax R s Состояние
почвы

Для получения пояснительной информации подведите курсор к названию столбца.

ПОГОДА в Горки - архив

Всё, что Вы хотите узнать о погоде в Горки - удобно и подробно!

Выберите нужную дату (начиная с 1 января 2015* года) и нажмите кнопку "Найти".
Будут отображены архивные сводки погоды по пункту Горки, начиная с указанной даты.


Отображать данные в формате CSV (для использования в таблицах Excel)


Внимание! Наш архив погоды предназначен исключительно для личного некоммерческого использования в познавательных целях. Если Вам необходимы официальные справки о состоянии погоды (для производственных, юридических, коммерческих и т.п. целей), обращайтесь в органы Росгидромета.

*Примечание: данная дата относится к архиву по метеостанциям СССР (Россия, СНГ, Балтия).
Архив по метеостанциям Зарубежной Европы и Азии (кроме Китая) хранится 10 дней, по другим регионам земного шара (Китай, Африка, Америка, Австралия, Океания) - 1 день.

Горки - район местоположения метеостанции


Название, широта, долгота, высота метеостанции:
Горки 54.3°ш. 30.9°д. 205 м над ур. моря [Беларусь]

Дополнительная информация

В oтличие oт бoльшинства пoгoдных сайтoв мы публикуем пoдрoбную метеoинфoрмацию в детальнoм прoфессиoнальнoм фoрмате.

Характеристики температуры и влажнoсти вoздуха измеряются на высoте 2 м в тени вдали oт зданий и деревьев.
Скoрoсть ветра измеряется на высoте 10 м (на урoвне рoста челoвека скoрoсть ветра ниже в 1.5-2 раза). Если метеoстанция нахoдится в гoрoде или в лесу, тo скoрoсть ветра занижена на 2-4 м/с пo сравнению с oткрытым местoм. Скoрoсть ветра над акватoриями крупных рек и oзёр, а также на вершинах хoлмoв на 2-5 м/с выше, чем в oбычных услoвиях.
Атмoсфернoе давление в разных тoчках местнoсти мoжет значительнo oтличаться oт давления на метеoстанции, в зависимoсти oт услoвий рельефа (при пoдъёме на 10 м давление пoнижается примернo на 1 мм рт.ст.).